FW6919 Weather Reports


Display with metric or nautical units.
time (UTC)temp
F
wind
direction
speed
MPH
gust
MPH
rain 1hr
in
rain 24hr
in
rain mn
in
humidity
%
barometer
mb
20260508135514 64 215 4.0 9.0 0.00 0.00 0.01 77 1015.6
20260508135015 64 211 5.0 12.0 0.00 0.00 0.01 77 1015.5
20260508134514 64 189 4.0 12.0 0.00 0.00 0.01 77 1015.4
20260508134014 64 165 5.0 11.0 0.00 0.00 0.01 78 1015.4
20260508133514 64 159 5.0 11.0 0.00 0.00 0.01 78 1015.4
20260508133013 64 208 3.0 10.0 0.00 0.00 0.01 81 1015.5
20260508132513 64 169 4.0 10.0 0.00 0.00 0.01 80 1015.5
20260508132013 63 180 2.0 8.0 0.00 0.00 0.01 82 1015.3
20260508131515 63 156 3.0 6.0 0.00 0.00 0.01 83 1015.3
20260508131014 63 149 2.0 6.0 0.00 0.00 0.01 84 1015.4
20260508130514 62 146 1.0 6.0 0.00 0.00 0.01 85 1015.4
20260508130013 62 117 3.0 3.0 0.00 0.00 0.01 86 1015.6
20260508125513 62 117 1.0 3.0 0.00 0.00 0.01 85 1015.5
20260508125015 62 117 2.0 3.0 0.00 0.00 0.01 86 1015.5
20260508124513 62 117 3.0 3.0 0.00 0.00 0.01 85 1015.6
20260508124012 62 0 0.0 3.0 0.00 0.00 0.01 85 1015.9
20260508123511 62 0 0.0 3.0 0.00 0.00 0.01 86 1015.8
20260508123012 62 0 0.0 4.0 0.00 0.00 0.01 86 1015.5
20260508122514 62 115 2.0 4.0 0.00 0.00 0.01 86 1015.5
20260508122010 62 114 3.0 4.0 0.00 0.00 0.01 85 1015.5
20260508121514 62 113 2.0 3.0 0.00 0.00 0.01 85 1015.7
20260508121013 62 112 2.0 6.0 0.00 0.00 0.00 85 1015.6
20260508120512 62 112 1.0 8.0 0.00 0.00 0.00 84 1015.5
20260508120011 62 135 2.0 8.0 0.00 0.00 0.00 84 1015.5
20260508115514 62 173 2.0 7.0 0.00 0.00 0.00 83 1015.7
20260508115010 62 279 3.0 7.0 0.00 0.00 0.00 83 1016.6
20260508114513 62 121 2.0 6.0 0.00 0.00 0.00 83 1015.9
20260508114010 62 121 5.0 6.0 0.00 0.00 0.00 83 1015.3
20260508113515 62 171 1.0 6.0 0.00 0.00 0.00 83 1015.7
20260508113014 62 171 5.0 5.0 0.00 0.00 0.00 84 1015.6
20260508112513 62 0 0.0 5.0 0.00 0.00 0.00 84 1015.6
20260508112012 62 176 1.0 5.0 0.00 0.00 0.00 85 1015.5
20260508111510 62 0 0.0 4.0 0.00 0.00 0.00 85 1015.4
20260508111013 62 184 1.0 7.0 0.00 0.00 0.00 85 1015.4
20260508110446 62 189 3.0 8.0 0.00 0.00 0.00 85 1015.4
20260508105943 62 148 6.0 8.0 0.00 0.00 0.00 84 1015.2
20260508105448 62 143 4.0 6.0 0.00 0.00 0.00 84 1015.3
20260508104946 62 155 2.0 5.0 0.00 0.00 0.00 84 1015.5
20260508104446 62 142 3.0 5.0 0.00 0.00 0.00 83 1015.4
20260508103945 62 46 3.0 3.0 0.00 0.00 0.00 83 1015.3
20260508103444 62 46 1.0 3.0 0.00 0.00 0.00 83 1015.4
20260508102948 62 45 1.0 5.0 0.00 0.00 0.00 82 1015.2
20260508102447 62 0 0.0 8.0 0.00 0.00 0.00 82 1015.3
20260508101946 62 348 2.0 8.0 0.00 0.00 0.00 83 1015.7
20260508101446 62 23 5.0 8.0 0.00 0.00 0.00 83 1016.0
20260508100943 62 307 5.0 5.0 0.00 0.00 0.00 83 1015.6
20260508100446 62 61 2.0 3.0 0.00 0.00 0.00 83 1014.9
20260508095943 62 0 0.0 4.0 0.00 0.00 0.00 83 1015.0
20260508095446 62 61 2.0 4.0 0.00 0.00 0.00 83 1014.9
20260508095042 62 59 1.0 3.0 0.00 0.00 0.00 83 1015.1
20260508094444 62 55 1.0 3.0 0.00 0.00 0.00 83 1015.0
20260508094042 62 51 2.0 3.0 0.00 0.00 0.00 83 1015.0
20260508093445 62 50 2.0 3.0 0.00 0.00 0.00 83 1015.1
20260508092944 62 50 2.0 3.0 0.00 0.00 0.00 82 1015.1
20260508092544 62 50 2.0 3.0 0.00 0.00 0.00 81 1015.2
20260508092042 62 50 2.0 3.0 0.00 0.00 0.00 81 1015.1
20260508091443 62 49 2.0 3.0 0.00 0.00 0.00 80 1015.1
20260508091044 62 0 0.0 3.0 0.00 0.00 0.00 80 1015.1
20260508090541 62 44 2.0 3.0 0.00 0.00 0.00 80 1015.2
20260508085945 63 0 0.0 1.0 0.00 0.00 0.00 79 1015.4
20260508085540 63 0 0.0 2.0 0.00 0.00 0.00 79 1015.1
20260508085040 63 0 0.0 2.0 0.00 0.00 0.00 79 1015.0
20260508084541 63 44 1.0 2.0 0.00 0.00 0.00 78 1015.1
20260508084041 63 0 0.0 2.0 0.00 0.00 0.00 78 1015.2
20260508083540 63 44 1.0 2.0 0.00 0.00 0.00 78 1015.4
20260508083040 63 44 2.0 4.0 0.00 0.00 0.00 77 1015.4
20260508082540 63 44 1.0 4.0 0.00 0.00 0.00 77 1015.4
20260508082040 63 0 0.0 3.0 0.00 0.00 0.00 77 1015.6
20260508081540 63 45 2.0 3.0 0.00 0.00 0.00 77 1015.7
20260508081040 63 0 0.0 2.0 0.00 0.00 0.00 76 1015.7
20260508080539 63 119 1.0 6.0 0.00 0.00 0.00 77 1015.7
20260508075946 63 0 0.0 6.0 0.00 0.00 0.00 77 1015.5
20260508075537 63 119 3.0 6.0 0.00 0.00 0.00 77 1015.4
20260508075040 63 107 3.0 4.0 0.00 0.00 0.00 77 1015.4
20260508074540 64 90 4.0 4.0 0.00 0.00 0.00 76 1015.6
20260508074041 64 351 2.0 4.0 0.00 0.00 0.00 76 1015.8
20260508073538 64 309 1.0 3.0 0.00 0.00 0.00 75 1016.1
20260508073040 64 309 1.0 4.0 0.00 0.00 0.00 74 1016.5
20260508072537 63 309 2.0 4.0 0.00 0.00 0.00 75 1016.7
20260508072039 63 0 0.0 4.0 0.00 0.00 0.00 75 1016.7
20260508071539 63 0 0.0 4.0 0.00 0.00 0.00 75 1016.7
20260508071039 63 309 2.0 4.0 0.00 0.00 0.00 75 1016.7
20260508070537 63 90 1.0 3.0 0.00 0.00 0.00 76 1016.7
20260508070038 63 90 2.0 3.0 0.00 0.00 0.00 76 1016.6
20260508065538 63 91 2.0 3.0 0.00 0.00 0.00 76 1016.7
20260508065037 63 15 2.0 3.0 0.00 0.00 0.00 76 1016.4
20260508064536 63 14 2.0 3.0 0.00 0.00 0.00 75 1016.4
20260508064037 63 15 2.0 3.0 0.00 0.00 0.00 75 1016.4
20260508063535 63 15 1.0 3.0 0.00 0.00 0.00 75 1016.4
20260508063040 63 0 0.0 0.0 0.00 0.00 0.00 75 1016.6
20260508062535 63 0 0.0 0.0 0.00 0.00 0.00 76 1016.5
20260508062036 63 0 0.0 3.0 0.00 0.00 0.00 76 1016.6
20260508061533 63 0 0.0 3.0 0.00 0.00 0.00 78 1016.7
20260508061035 62 18 3.0 3.0 0.00 0.00 0.00 77 1016.6
20260508060534 62 18 3.0 3.0 0.00 0.00 0.00 79 1016.8
20260508060034 62 18 1.0 3.0 0.00 0.00 0.00 78 1016.9
20260508055533 62 0 0.0 3.0 0.00 0.00 0.00 78 1016.7
20260508055036 62 0 0.0 4.0 0.00 0.00 0.00 78 1016.8
20260508054533 61 18 2.0 4.0 0.00 0.00 0.00 79 1016.9
20260508054033 61 18 2.0 4.0 0.00 0.00 0.00 80 1016.8
20260508053532 61 21 4.0 4.0 0.00 0.00 0.00 81 1016.9
20260508053034 61 0 0.0 0.0 0.00 0.00 0.00 81 1016.8
20260508052534 61 0 0.0 0.0 0.00 0.00 0.00 81 1016.9
20260508052033 61 0 0.0 0.0 0.00 0.00 0.00 81 1016.8
20260508051531 61 0 0.0 1.0 0.00 0.00 0.00 80 1016.8
20260508051032 61 0 0.0 1.0 0.00 0.00 0.00 80 1016.8
20260508050531 62 0 0.0 1.0 0.00 0.00 0.00 79 1017.0
20260508050033 62 0 0.0 0.0 0.00 0.00 0.00 80 1017.0
20260508045533 62 0 0.0 0.0 0.00 0.00 0.00 79 1017.0
20260508045034 62 0 0.0 0.0 0.00 0.00 0.00 78 1016.9
20260508044532 62 0 0.0 0.0 0.00 0.00 0.00 78 1016.9
20260508044030 62 0 0.0 2.0 0.00 0.00 0.00 78 1016.8
20260508043531 62 0 0.0 2.0 0.00 0.00 0.00 78 1017.0
20260508043031 62 0 0.0 0.0 0.00 0.00 0.00 78 1016.9
20260508042530 62 0 0.0 0.0 0.00 0.00 0.00 78 1016.9
20260508042030 62 0 0.0 1.0 0.00 0.00 0.00 77 1016.9
20260508041529 62 0 0.0 1.0 0.00 0.00 0.00 77 1016.7
20260508041030 62 0 0.0 1.0 0.00 0.00 0.00 77 1016.8
20260508040529 62 0 0.0 0.0 0.00 0.00 0.00 77 1016.7
20260508040031 62 0 0.0 0.0 0.00 0.00 0.00 76 1016.7
20260508035531 62 0 0.0 0.0 0.00 0.00 0.00 75 1016.8
20260508035028 63 0 0.0 0.0 0.00 0.00 0.00 75 1016.6
20260508034529 63 0 0.0 0.0 0.00 0.00 0.00 73 1016.8
20260508034030 63 0 0.0 0.0 0.00 0.00 0.00 73 1016.6
20260508033531 63 0 0.0 0.0 0.00 0.00 0.00 72 1016.6
20260508033029 63 0 0.0 1.0 0.00 0.00 0.00 72 1016.4
20260508032528 63 0 0.0 2.0 0.00 0.00 0.00 72 1016.6
20260508032029 64 0 0.0 2.0 0.00 0.00 0.00 71 1016.5
20260508031528 64 16 1.0 2.0 0.00 0.00 0.00 70 1016.5
20260508031029 64 0 0.0 1.0 0.00 0.00 0.00 69 1016.4
20260508030528 64 0 0.0 2.0 0.00 0.00 0.00 69 1016.4
20260508030029 65 0 0.0 2.0 0.00 0.00 0.00 68 1016.3
20260508025530 65 15 1.0 3.0 0.00 0.00 0.00 67 1016.3
20260508025028 65 15 1.0 3.0 0.00 0.00 0.00 67 1016.5
20260508024527 65 15 1.0 4.0 0.00 0.00 0.00 67 1016.1
20260508024028 65 15 1.0 4.0 0.00 0.00 0.00 68 1016.2
20260508023529 65 15 2.0 3.0 0.00 0.00 0.00 68 1016.3
20260508023029 65 14 2.0 3.0 0.00 0.00 0.00 67 1016.0
20260508022526 66 15 1.0 3.0 0.00 0.00 0.00 67 1015.9
20260508022027 66 15 1.0 3.0 0.00 0.00 0.00 67 1016.0
20260508021529 66 15 2.0 5.0 0.00 0.00 0.00 66 1015.8
20260508021028 66 15 2.0 5.0 0.00 0.00 0.00 66 1015.8
20260508020527 66 14 4.0 5.0 0.00 0.00 0.00 66 1015.9
20260508020029 66 14 2.0 5.0 0.00 0.00 0.00 66 1015.8
20260508015526 66 14 1.0 5.0 0.00 0.00 0.00 66 1015.8
20260508015026 66 13 2.0 5.0 0.00 0.00 0.00 66 1015.8
20260508014527 67 14 3.0 5.0 0.00 0.00 0.00 66 1015.7
20260508014025 67 14 2.0 4.0 0.00 0.00 0.00 65 1015.8
20260508013527 67 14 2.0 4.0 0.00 0.00 0.00 65 1015.8
20260508013025 67 14 3.0 4.0 0.00 0.00 0.00 64 1015.7
20260508012524 67 15 2.0 4.0 0.00 0.00 0.00 64 1015.6
20260508012024 68 15 1.0 4.0 0.00 0.00 0.00 63 1015.7
20260508011526 68 15 1.0 6.0 0.00 0.00 0.00 63 1015.6
20260508011024 68 15 3.0 7.0 0.00 0.00 0.00 62 1015.7
20260508010524 68 14 3.0 11.0 0.00 0.00 0.00 62 1015.8
20260508010024 68 14 2.0 11.0 0.00 0.00 0.00 62 1015.8
20260508005524 68 15 7.0 11.0 0.00 0.00 0.00 62 1015.9
20260508005024 68 15 5.0 11.0 0.00 0.00 0.00 62 1015.8
20260508004523 68 15 3.0 10.0 0.00 0.00 0.00 62 1015.7
20260508004023 68 13 4.0 10.0 0.00 0.00 0.00 62 1015.6
20260508003522 69 12 3.0 10.0 0.00 0.00 0.00 62 1015.7
20260508003025 69 12 7.0 12.0 0.00 0.00 0.00 61 1015.7
20260508002522 69 15 7.0 12.0 0.00 0.00 0.00 61 1015.7
20260508002022 69 13 4.0 11.0 0.00 0.00 0.00 62 1015.8
20260508001523 69 12 4.0 8.0 0.00 0.00 0.00 62 1015.8
20260508001021 69 13 4.0 10.0 0.00 0.00 0.00 62 1015.6
20260508000521 70 13 3.0 12.0 0.00 0.00 0.00 61 1015.8
20260508000021 70 13 4.0 13.0 0.00 0.00 0.00 60 1016.0
20260507235521 70 14 7.0 13.0 0.00 0.00 0.00 59 1016.0
20260507235022 72 17 10.0 12.0 0.00 0.00 0.00 56 1016.0
20260507234519 72 121 2.0 4.0 0.00 0.00 0.00 52 1015.9
20260507234020 72 121 2.0 5.0 0.00 0.00 0.00 52 1015.9
20260507233520 72 26 3.0 5.0 0.00 0.00 0.00 51 1015.9
20260507233022 72 28 2.0 4.0 0.00 0.00 0.00 53 1015.9
20260507232521 72 27 2.0 4.0 0.00 0.00 0.00 53 1015.9
20260507232019 72 26 2.0 3.0 0.00 0.00 0.00 52 1015.8
20260507231519 72 24 1.0 3.0 0.00 0.00 0.00 51 1015.8
20260507231019 72 0 0.0 3.0 0.00 0.00 0.00 51 1015.9
20260507230521 72 24 2.0 3.0 0.00 0.00 0.00 55 1016.0
20260507230019 72 22 1.0 3.0 0.00 0.00 0.00 52 1016.0
20260507225521 72 26 2.0 3.0 0.00 0.00 0.00 52 1016.0
20260507225017 72 25 2.0 5.0 0.00 0.00 0.00 54 1016.2
20260507224518 72 0 0.0 5.0 0.00 0.00 0.00 52 1016.0
20260507224019 71 13 1.0 5.0 0.00 0.00 0.00 53 1016.2
20260507223517 72 13 2.0 4.0 0.00 0.00 0.00 54 1016.2
20260507223019 72 12 3.0 3.0 0.00 0.00 0.00 55 1016.2
20260507222519 72 12 1.0 5.0 0.00 0.00 0.00 54 1016.2
20260507222017 72 13 1.0 5.0 0.00 0.00 0.00 54 1016.3
20260507221517 72 13 3.0 5.0 0.00 0.00 0.00 53 1016.4
20260507221018 72 13 2.0 5.0 0.00 0.00 0.00 51 1016.3
20260507220517 72 0 0.0 5.0 0.00 0.00 0.00 52 1016.4
20260507220018 72 11 3.0 6.0 0.00 0.00 0.00 54 1016.2
20260507215516 72 117 3.0 6.0 0.00 0.00 0.00 53 1016.4
20260507215018 72 160 2.0 4.0 0.00 0.00 0.00 52 1016.5
20260507214516 72 160 1.0 5.0 0.00 0.00 0.00 53 1016.5
20260507214016 72 0 0.0 5.0 0.00 0.00 0.00 54 1016.6
20260507213514 72 185 1.0 5.0 0.00 0.00 0.00 53 1016.7
20260507213015 72 169 2.0 5.0 0.00 0.00 0.00 52 1016.7
20260507212519 73 132 3.0 7.0 0.00 0.00 0.00 52 1016.8
20260507212015 73 134 3.0 7.0 0.00 0.00 0.00 52 1016.9
20260507211515 73 71 1.0 5.0 0.00 0.00 0.00 52 1016.8
20260507211015 73 69 1.0 5.0 0.00 0.00 0.00 51 1017.0
20260507210516 73 58 2.0 5.0 0.00 0.00 0.00 53 1017.1
20260507210015 73 349 2.0 8.0 0.00 0.00 0.00 53 1017.3
20260507205515 73 121 2.0 9.0 0.00 0.00 0.00 51 1017.2
20260507205014 73 53 6.0 9.0 0.00 0.00 0.00 52 1017.1
20260507204515 73 62 6.0 9.0 0.00 0.00 0.00 52 1017.1
20260507204017 73 134 1.0 9.0 0.00 0.00 0.00 51 1017.0
20260507203513 73 108 4.0 8.0 0.00 0.00 0.00 52 1017.0
20260507203014 73 78 3.0 9.0 0.00 0.00 0.00 52 1017.0
20260507202512 73 101 3.0 9.0 0.00 0.00 0.00 52 1017.1
20260507202013 74 95 2.0 8.0 0.00 0.00 0.00 51 1017.2
20260507201513 74 30 2.0 10.0 0.00 0.00 0.00 50 1017.3
20260507201012 74 69 1.0 10.0 0.00 0.00 0.00 50 1017.4
20260507200513 74 65 3.0 7.0 0.00 0.00 0.00 50 1017.5
20260507200014 74 125 5.0 8.0 0.00 0.00 0.00 52 1017.5
20260507195511 73 31 1.0 8.0 0.00 0.00 0.00 51 1017.6
20260507195016 73 136 8.0 8.0 0.00 0.00 0.00 51 1017.7
20260507194514 73 83 7.0 8.0 0.00 0.00 0.00 53 1017.7
20260507194016 72 15 3.0 10.0 0.00 0.00 0.00 52 1017.7
20260507193512 73 55 4.0 10.0 0.00 0.00 0.00 51 1017.8
20260507193013 73 11 2.0 9.0 0.00 0.00 0.00 50 1017.9
20260507192514 73 40 1.0 10.0 0.00 0.00 0.00 51 1018.0
20260507192014 72 76 1.0 11.0 0.00 0.00 0.00 52 1018.2
20260507191514 72 49 3.0 11.0 0.00 0.00 0.00 53 1018.1
20260507191013 72 69 4.0 12.0 0.00 0.00 0.00 54 1018.2
20260507190514 71 81 2.0 12.0 0.00 0.00 0.00 54 1018.3
20260507190111 71 42 5.0 17.0 0.00 0.00 0.00 53 1018.3
20260507185612 71 348 5.0 17.0 0.00 0.00 0.00 53 1018.4
20260507185112 72 24 5.0 17.0 0.00 0.00 0.00 53 1018.4
20260507184609 71 13 1.0 13.0 0.00 0.00 0.00 53 1018.3
20260507184111 71 15 7.0 13.0 0.00 0.00 0.00 53 1018.3
20260507183612 71 61 6.0 10.0 0.00 0.00 0.00 56 1018.5
20260507183113 70 22 5.0 15.0 0.00 0.00 0.00 56 1018.4
20260507182612 69 360 3.0 15.0 0.00 0.00 0.00 55 1018.5
20260507182112 69 11 5.0 15.0 0.00 0.00 0.00 55 1018.5
20260507181612 69 9 8.0 15.0 0.00 0.00 0.00 55 1018.7
20260507181113 69 13 5.0 15.0 0.00 0.00 0.00 54 1018.7
20260507180612 69 13 2.0 15.0 0.00 0.00 0.00 56 1018.7
20260507180116 69 10 7.0 15.0 0.00 0.00 0.00 56 1018.9
20260507175610 69 18 9.0 15.0 0.00 0.00 0.00 56 1018.8
20260507175112 69 15 4.0 13.0 0.00 0.00 0.00 55 1018.9
20260507174610 68 15 5.0 13.0 0.00 0.00 0.00 55 1019.1
20260507174114 68 9 4.0 13.0 0.00 0.00 0.00 56 1019.1
20260507173615 68 58 4.0 13.0 0.00 0.00 0.00 56 1019.2
20260507173110 68 13 3.0 13.0 0.00 0.00 0.00 54 1019.4
20260507172624 68 10 7.0 11.0 0.00 0.00 0.00 57 1019.7
20260507172124 68 13 3.0 11.0 0.00 0.00 0.00 57 1019.7
20260507171623 67 5 6.0 11.0 0.00 0.00 0.00 57 1019.7
20260507171125 67 9 7.0 10.0 0.00 0.00 0.00 57 1020.2
20260507170624 67 15 3.0 11.0 0.00 0.00 0.00 56 1020.4
20260507170124 66 15 5.0 11.0 0.00 0.00 0.00 57 1020.4
20260507165623 66 13 4.0 12.0 0.00 0.00 0.00 59 1020.6
20260507165123 66 5 5.0 12.0 0.00 0.00 0.00 59 1020.7
20260507164624 66 17 7.0 10.0 0.00 0.00 0.00 57 1020.7
20260507164124 66 12 5.0 10.0 0.00 0.00 0.00 59 1020.7
20260507163623 65 16 2.0 10.0 0.00 0.00 0.00 61 1020.7
20260507163123 65 12 5.0 10.0 0.00 0.00 0.00 61 1020.7
20260507162623 65 19 3.0 11.0 0.00 0.00 0.00 62 1020.7
20260507162121 65 11 5.0 11.0 0.00 0.00 0.00 61 1020.7
20260507161625 65 30 5.0 11.0 0.00 0.00 0.00 62 1020.7
20260507161122 65 80 5.0 10.0 0.00 0.00 0.00 61 1020.7
20260507160622 65 14 5.0 12.0 0.00 0.00 0.00 63 1020.7
20260507160121 65 45 4.0 12.0 0.00 0.00 0.00 63 1020.8
20260507155622 64 49 10.0 9.0 0.00 0.00 0.00 62 1020.7
20260507155121 65 34 6.0 9.0 0.00 0.00 0.00 64 1020.6
20260507154623 65 59 2.0 10.0 0.00 0.00 0.00 64 1020.7
20260507154121 64 338 3.0 10.0 0.00 0.00 0.00 66 1020.9
20260507153621 64 5 4.0 9.0 0.00 0.00 0.00 65 1020.9
20260507153121 64 57 5.0 9.0 0.00 0.00 0.00 64 1020.9
20260507152622 64 51 3.0 6.0 0.00 0.00 0.00 66 1020.8
20260507152119 64 360 2.0 10.0 0.00 0.00 0.00 66 1021.0
20260507151618 63 42 3.0 10.0 0.00 0.00 0.00 66 1021.0
20260507151120 63 339 4.0 9.0 0.00 0.00 0.00 68 1021.0
20260507150619 63 341 4.0 9.0 0.00 0.00 0.00 67 1021.1
20260507150119 63 60 5.0 10.0 0.00 0.00 0.00 69 1021.1
20260507145618 62 44 4.0 10.0 0.00 0.00 0.00 68 1021.2
20260507145119 62 50 2.0 10.0 0.00 0.00 0.00 69 1021.2
20260507144622 62 57 3.0 10.0 0.00 0.00 0.00 70 1021.2
20260507144119 62 22 1.0 10.0 0.00 0.00 0.00 72 1021.1
20260507143620 61 17 4.0 7.0 0.00 0.00 0.00 72 1021.3
20260507143118 61 13 4.0 8.0 0.00 0.00 0.00 74 1021.3
20260507142620 60 13 3.0 9.0 0.00 0.00 0.00 74 1021.3
20260507142118 60 16 5.0 9.0 0.00 0.00 0.00 74 1021.4
20260507141619 60 360 2.0 6.0 0.00 0.00 0.00 76 1021.4
20260507141116 60 71 2.0 7.0 0.00 0.00 0.00 77 1021.5
20260507140616 59 60 3.0 7.0 0.00 0.00 0.00 78 1021.4
20260507140117 59 360 4.0 6.0 0.00 0.00 0.00 78 1021.4